Location: Ostrava
(49.8330°N, 18.2830°E)
Time: 07:58:04
(UTC+02:00)

Lacrosse 5 - Visible Passes

Search period start: 01 October 2014 00:00
Search period end: 11 October 2014 00:00
Orbit: 706 x 722 km, 57.0° (Epoch: 29 September)

Date Brightness Start Highest point End Pass type
(mag) Time Alt. Az. Time Alt. Az. Time Alt. Az.
01 Oct 3.0 20:08:58 10° WNW 20:13:38 37° N 20:16:50 18° NE visible
01 Oct 3.2 21:52:32 10° WNW 21:55:55 35° NNW 21:55:55 35° NNW visible
02 Oct 2.8 19:13:46 10° W 19:18:33 42° NNW 19:23:19 10° ENE visible
02 Oct 2.8 20:57:35 10° WNW 21:02:16 38° N 21:02:58 36° NNE visible
02 Oct 4.3 22:40:40 10° NW 22:42:02 19° NW 22:42:02 19° NW visible
03 Oct 3.0 20:02:31 10° WNW 20:07:10 36° N 20:10:01 20° NE visible
03 Oct 3.2 21:45:52 10° NW 21:49:05 37° NNW 21:49:05 37° NNW visible
04 Oct 2.9 19:07:22 10° WNW 19:12:03 38° N 19:16:44 10° ENE visible
04 Oct 2.5 20:50:59 10° WNW 20:55:47 43° NNE 20:56:09 42° NNE visible
04 Oct 4.3 22:33:58 10° WNW 22:35:14 18° WNW 22:35:14 18° WNW visible
05 Oct 2.8 19:56:01 10° WNW 20:00:42 37° N 20:03:14 23° ENE visible
05 Oct 3.1 21:39:08 10° NW 21:42:18 39° NW 21:42:18 39° NW visible
06 Oct 2.9 19:00:56 10° WNW 19:05:35 36° N 19:10:13 10° ENE visible
06 Oct 2.2 20:44:19 10° NW 20:49:14 52° NNE 20:49:24 52° NNE visible
06 Oct 4.4 22:27:18 10° WNW 22:28:29 17° WNW 22:28:29 17° WNW visible
07 Oct 2.6 19:49:26 10° WNW 19:54:12 42° NNE 19:56:31 26° ENE visible
07 Oct 3.0 21:32:25 10° WNW 21:35:36 40° WNW 21:35:36 40° WNW visible
08 Oct 2.8 18:54:27 10° WNW 18:59:07 37° N 19:03:40 11° ENE visible
08 Oct 1.8 20:37:36 10° NW 20:42:37 68° NNE 20:42:45 68° NE visible
08 Oct 4.4 22:20:45 10° WNW 22:21:50 16° WNW 22:21:50 16° WNW visible
09 Oct 2.3 19:42:47 10° NW 19:47:40 50° NNE 19:49:55 29° E visible
09 Oct 3.1 21:25:44 10° WNW 21:29:00 38° W 21:29:00 38° W visible
10 Oct 2.6 18:47:53 10° WNW 18:52:38 41° NNE 18:57:08 11° E visible
10 Oct 1.6 20:30:53 10° WNW 20:35:55 88° SW 20:36:14 79° SE visible
10 Oct 4.5 22:14:26 10° WNW 22:15:19 14° W 22:15:19 14° W visible
